Regional Weather Roundup
Issued by NWS Cleveland, OH

Home | Current Version | Previous Version | Graphics & Text | Print | Product List | Glossary On
Versions: 1 2 3 4 5 6 7 8 9 10 11 12 13 14 15 16 17 18 19 20 21 22 23 24 25 26 27 28 29 30 31 32 33 34 35 36 37 38 39 40 41 42 43 44 45 46 47 48 49 50
000
ASUS41 KCLE 031700
RWRCLE
OHIO REGIONAL WEATHER ROUNDUP
NATIONAL WEATHER SERVICE WILMINGTON, OH
100 PM EDT WED JUN 03 2015

NOTE: "FAIR" INDICATES FEW OR NO CLOUDS BELOW 12,000 FEET WITH NO
SIGNIFICANT WEATHER AND/OR OBSTRUCTIONS TO VISIBILITY.

OHZ001>008-015>018-024>027-034-035-043-044-031800-
   NORTHWEST OHIO

CITY           SKY/WX    TMP DP  RH WIND       PRES   REMARKS
DEFIANCE       CLOUDY    71  56  58 VRB7      30.10S
FINDLAY        MOSUNNY   72  56  57 E6        30.09S
TOLEDO EXPRESS MOSUNNY   71  51  49 E10       30.10F
TOLEDO EXEC    SUNNY     71  47  42 E12       30.11F
LIMA           CLOUDY    68  57  68 E8        30.09F
$$

OHZ009>014-019>023-028>033-038-089-031800-
   NORTHEAST OHIO

CITY           SKY/WX    TMP DP  RH WIND       PRES   REMARKS
CLE-HOPKINS    MOSUNNY   67  54  63 N13       30.13S
CLE-LAKEFRONT  SUNNY     62  54  74 NE16G22   30.11F
CUY CO. ARPT   SUNNY     72 N/A N/A E9        30.12F
LORAIN-ELYRIA  SUNNY     70  55  59 NE14      30.11F
ASHTABULA      SUNNY     69  53  56 S8        30.15S
AKRON-CANTON   PTSUNNY   68  55  63 SE7       30.12S
WOOSTER        NOT AVBL
MANSFIELD      PTSUNNY   65  56  72 E5        30.11F
YOUNGSTOWN     PTSUNNY   68  55  63 SE10      30.13F
$$

OHZ042-051>053-060>062-070>072-077>081-031800-
  SOUTHWEST OHIO

CITY           SKY/WX    TMP DP  RH WIND       PRES   REMARKS
CINC-COVINGTON CLOUDY    67  56  67 E5        30.07F
CINC-LUNKEN    CLOUDY    69  58  67 MISG      30.07F
HAMILTON       CLOUDY    67  56  67 CALM      30.08F
DAYTON         NOT AVBL
WRIGHT-PAT AFB PTSUNNY   69  58  68 VRB2      30.07F
DAYTON GENERAL CLOUDY    67  58  72 VRB6      30.07F
WILMINGTON     CLOUDY    66  56  70 E8        30.08F HAZE
$$

OHZ036-037-039>041-045>050-054>059-063>069-073>076-082>088-031800-
  CENTRAL AND SOUTHEAST OHIO

CITY           SKY/WX    TMP DP  RH WIND       PRES   REMARKS
COLUMBUS       CLOUDY    68  58  70 E6        30.08S
OSU AIRPORT    CLOUDY    68  57  68 E8        30.08F
BOLTON FIELD   CLOUDY    70  59  68 E6        30.08F
RICKENBACK AFB NOT AVBL
NEWARK         CLOUDY    69  58  67 E6        30.08F
MARION         CLOUDY    67  56  67 E9        30.10F
LANCASTER      CLOUDY    70  59  68 E8        30.08F
ZANESVILLE     CLOUDY    70  57  63 VRB3      30.08F
NEW PHILLY     PTSUNNY   73  57  57 E8        30.10F
$$



USA.gov is the U.S. government's official web portal to all federal, state and local government web resources and services.